Theta_e
327 330 331 329 337 337 336 334 332 335 335 332 328 327 332 336 340 350 340 339 341 342 339 338 338 338 335 332 332 333 332 326 326 332 329 329 332 330 328 327 326 328 326 327 327 329 331 330 328
328 330 331 333 337 339 336 332 335 334 334 333 332 330 330 338 338 339 340 340 342 341 341 338 338 338 335 333 333 333 333 328 329 332 329 327 327 328 327 326 326 326 327 325 327 326 326 329 327
328 330 334 334 338 340 337 333 333 333 332 333 332 328 332 337 336 340 340 340 341 341 342 340 336 338 336 333 333 333 332 330 328 329 327 326 327 329 326 326 325 325 326 325 326 325 325 324 326
328 333 331 335 338 335 333 333 332 333 332 332 333 335 334 336 338 339 340 340 341 341 340 340 336 337 336 333 334 333 332 331 332 333 331 329 325 329 326 325 325 325 325 326 326 325 325 324 324
329 333 336 338 335 333 333 333 333 333 332 332 331 334 336 337 338 339 340 340 341 340 340 338 337 337 336 333 334 333 333 332 330 330 333 331 327 324 326 325 325 324 324 324 325 324 324 323 323
331 330 336 338 334 331 331 332 333 333 331 332 332 334 337 336 339 340 339 339 340 339 339 339 337 337 336 334 334 334 333 332 331 329 329 333 329 326 324 325 324 324 324 324 324 324 324 322 323
332 333 337 336 334 332 330 329 331 332 332 332 331 337 335 336 339 340 339 339 339 339 339 339 338 336 336 335 334 334 333 331 330 329 328 333 331 327 325 325 325 324 324 324 324 322 323 323 323
329 330 334 333 332 333 329 330 330 331 333 331 331 335 338 337 339 340 339 339 339 339 339 339 339 337 337 336 335 334 333 331 330 329 328 329 331 329 326 325 325 324 324 324 323 322 320 322 322
328 328 331 333 333 331 328 330 328 329 331 331 332 333 336 338 339 339 339 339 339 339 339 339 337 338 337 337 336 337 336 331 330 329 328 328 329 328 327 327 326 325 325 324 323 322 321 317 321
326 327 329 331 329 330 328 329 328 329 331 331 333 333 336 337 338 339 339 339 339 339 339 339 339 338 337 337 337 336 335 334 332 330 329 328 328 328 328 328 328 326 325 325 324 323 323 321 315
325 326 327 328 329 329 329 329 328 328 329 328 332 332 334 336 336 335 335 334 335 338 338 339 339 339 339 337 336 336 335 334 333 333 332 331 330 329 328 328 329 328 326 325 325 324 323 323 320
325 324 325 327 327 328 329 328 328 328 326 326 325 327 330 331 332 332 330 328 329 332 333 335 338 338 339 339 338 336 336 335 334 334 333 333 332 330 329 328 328 328 328 326 326 326 324 324 324
324 323 324 325 326 327 326 328 327 326 325 325 324 324 325 326 327 325 324 323 324 324 325 327 331 335 338 337 337 337 336 335 335 334 334 333 333 331 330 329 327 326 328 327 327 326 326 325 325
321 320 325 326 326 326 327 326 325 325 323 324 324 323 323 325 324 323 322 322 321 320 320 320 322 326 332 336 338 336 336 337 335 335 334 334 333 332 331 329 329 327 326 327 326 326 326 325 325
321 323 323 325 325 325 325 325 324 323 322 323 323 322 322 322 322 321 321 320 319 319 318 318 319 320 324 329 334 337 337 335 337 336 335 334 333 333 332 331 330 329 327 326 326 326 325 325 325
321 320 320 320 322 322 322 322 319 320 320 321 321 319 319 319 321 320 319 318 318 318 317 318 318 319 320 322 326 330 333 335 335 335 333 334 334 333 332 331 331 330 329 328 327 326 326 325 325
320 316 316 316 318 319 322 320 316 316 319 318 318 317 317 317 318 318 318 317 316 316 315 316 316 317 318 319 322 325 328 330 333 335 335 333 333 333 332 332 331 330 330 329 328 327 326 326 325
318 315 314 314 316 318 318 318 316 318 318 316 315 314 314 314 315 317 316 314 314 314 315 315 315 315 316 317 318 322 325 328 330 332 334 334 333 333 332 332 332 331 331 330 329 328 327 327 326
313 315 316 312 316 319 318 315 314 314 316 316 315 315 314 313 316 315 314 313 314 314 314 314 315 316 317 315 316 320 324 326 328 329 332 332 329 329 329 330 330 331 331 331 330 329 328 327 327
317 316 313 314 316 318 317 315 313 313 314 315 315 314 313 314 313 313 313 313 313 312 310 310 311 313 315 320 319 316 320 324 325 328 330 330 330 329 327 327 327 327 327 328 329 330 328 328 328
319 318 314 313 317 317 318 318 316 314 314 313 314 313 314 313 315 311 312 311 310 309 307 307 309 310 313 316 322 317 318 321 323 326 327 328 329 327 326 326 326 326 326 326 327 328 328 327 327
321 318 317 316 318 319 317 318 315 314 314 314 314 313 313 314 313 310 310 309 308 307 305 304 305 307 308 313 321 323 324 324 323 325 327 327 327 328 328 327 326 326 326 326 326 326 327 326 326
319 316 317 317 319 319 317 319 316 313 315 315 314 314 314 313 310 309 308 307 305 305 304 302 301 303 304 306 311 313 315 316 317 321 322 321 321 324 324 324 324 325 326 327 327 326 326 326 325
318 319 320 320 321 324 319 317 315 314 313 313 314 314 314 311 309 307 307 305 303 302 302 300 299 299 301 301 303 305 304 304 304 305 306 306 307 307 309 309 311 313 317 318 322 325 326 325 326
319 320 322 321 322 316 312 317 314 313 312 314 313 312 312 310 307 305 304 303 302 300 299 299 297 296 297 298 298 300 300 299 299 299 299 300 300 299 299 300 302 304 305 307 310 313 319 324 324
320 320 317 317 318 314 311 313 311 313 312 312 312 312 311 309 307 305 303 302 300 299 297 297 297 295 295 296 296 297 296 295 295 295 295 296 296 295 295 296 296 298 299 300 301 304 307 310 313
318 320 315 314 309 313 313 313 312 313 312 312 312 312 310 309 306 303 302 300 299 297 295 294 295 293 293 294 294 294 294 293 293 293 293 293 293 293 293 293 294 295 295 296 297 299 302 303 304
316 315 318 316 315 314 311 311 311 313 312 311 312 311 310 307 305 302 301 298 296 295 294 292 292 291 291 291 291 291 291 290 290 290 290 290 290 290 290 291 291 292 293 294 296 297 297 296 296
315 317 316 316 316 315 314 310 309 309 309 311 309 311 310 307 304 301 300 297 295 293 293 291 290 289 289 289 289 289 288 288 288 288 287 287 288 288 288 289 289 290 291 293 293 292 292 292 292
313 314 315 316 316 315 316 315 310 308 309 309 309 311 309 307 304 300 298 295 293 292 291 290 289 288 287 287 288 287 287 286 286 286 285 285 286 286 286 287 288 288 290 290 289 289 289 290 290
Wind_Speed
25 15 10 5 2 4 6 2 7 5 8 8 6 9 12 13 6 4 8 8 14 15 11 13 12 11 9 9 9 11 9 9 9 8 8 7 8 9 9 9 8 7 7 7 8 10 10 9 10
24 15 4 4 3 6 4 8 9 9 8 3 6 3 12 12 8 9 10 10 14 12 11 10 12 10 9 9 9 9 7 9 11 10 9 4 10 7 7 7 5 5 6 6 6 8 8 9 6
20 7 2 3 4 3 6 11 8 8 2 2 5 9 7 5 9 6 12 13 13 12 13 8 10 11 8 8 8 8 6 7 10 8 5 5 8 7 5 5 5 4 4 4 5 5 6 6 6
9 4 3 2 10 9 11 9 9 8 7 4 5 8 6 10 5 8 12 12 12 11 8 6 9 10 8 6 5 5 4 4 4 5 5 6 6 7 6 5 4 3 3 4 2 2 3 3 5
9 4 2 5 9 9 9 6 4 8 6 4 8 7 7 8 10 13 12 11 12 9 6 5 9 9 8 6 4 3 2 2 3 3 4 5 4 4 7 7 5 4 2 2 2 3 4 2 1
4 1 3 4 8 8 6 3 1 8 9 3 12 9 5 7 12 12 11 10 10 10 4 4 6 9 8 6 4 4 3 2 2 2 4 6 4 2 5 5 6 6 5 4 4 4 5 2 1
4 4 5 9 8 6 7 4 2 7 10 5 3 7 7 12 10 11 9 10 8 6 5 3 2 7 8 7 6 5 5 4 5 5 4 7 6 4 3 5 4 6 5 6 7 6 7 6 5
4 2 3 3 8 5 4 3 3 8 6 4 5 4 6 10 11 11 9 8 7 6 6 6 4 4 4 5 6 8 8 7 7 7 7 8 9 8 7 8 8 8 8 7 8 8 8 9 8
4 2 3 1 3 8 6 5 2 2 6 7 6 8 11 14 12 11 9 7 6 6 6 6 7 7 7 8 8 9 10 10 10 10 10 10 11 9 9 11 11 11 10 10 10 10 10 10 11
2 2 4 7 8 8 6 2 7 4 7 8 8 9 13 12 11 12 11 13 9 8 8 8 8 9 9 9 10 9 9 9 11 11 11 12 12 10 13 12 12 14 12 12 12 11 12 12 12
2 2 5 4 7 6 6 4 1 5 5 11 12 9 10 10 7 5 5 2 3 6 10 10 10 11 11 12 11 11 11 11 10 12 11 13 11 13 15 13 14 15 16 17 15 13 14 14 13
3 2 4 6 3 2 4 4 3 4 4 8 9 9 10 8 11 11 4 2 1 4 5 7 10 11 14 14 12 13 13 13 14 13 15 17 17 17 16 17 18 16 14 14 14 16 14 15 14
5 4 4 6 4 3 6 1 5 4 5 5 9 4 4 3 3 1 1 2 4 5 4 5 10 13 15 16 17 15 16 16 16 16 15 17 19 19 19 19 17 18 16 16 16 16 18 16 17
6 8 6 3 4 1 1 5 5 6 9 8 7 8 7 4 3 5 5 8 6 4 6 8 8 7 12 17 20 17 19 18 17 18 18 18 20 20 20 20 20 21 21 20 21 21 21 21 21
4 5 0 3 6 4 2 6 10 8 6 4 7 6 7 7 4 8 10 10 8 4 8 11 12 13 13 14 18 18 17 17 19 19 18 20 20 22 21 21 21 22 22 22 22 22 23 23 22
2 5 6 8 9 3 7 5 10 14 10 10 9 8 8 7 12 12 14 14 2 5 10 12 11 11 13 15 16 18 19 20 22 25 23 18 21 23 22 23 23 22 21 21 23 24 24 24 25
4 3 9 8 14 7 8 5 10 6 2 6 6 8 7 7 9 8 14 6 6 5 9 12 12 11 11 12 14 17 19 20 20 21 21 19 21 21 24 24 22 22 22 22 22 23 23 24 24
7 9 7 9 6 3 8 9 12 1 4 7 8 8 7 7 7 10 10 8 3 4 7 9 9 10 10 11 13 15 16 17 19 19 19 19 16 17 21 24 24 21 21 23 23 24 23 24 25
2 4 10 8 5 4 9 12 10 9 9 9 8 8 8 8 11 10 12 7 5 4 5 7 8 9 9 9 11 12 14 15 17 17 19 20 17 20 23 23 24 22 21 22 25 24 23 26 27
8 6 8 2 4 1 8 13 11 9 9 9 11 11 9 8 9 14 14 10 7 5 5 7 8 9 8 8 9 10 10 7 7 4 6 12 14 12 15 20 22 22 24 25 22 24 24 23 22
10 8 7 6 3 4 8 12 16 13 16 11 12 12 9 9 5 8 14 13 7 6 7 8 10 10 12 10 8 6 6 8 9 9 10 8 9 10 13 14 17 18 19 22 24 23 23 19 17
12 8 8 7 4 3 9 6 9 6 14 14 15 11 10 9 6 9 15 13 8 7 7 9 11 13 15 12 11 13 12 10 11 12 10 6 8 8 12 12 13 12 14 17 19 20 22 23 19
5 5 9 9 5 6 10 8 4 7 6 9 10 9 9 9 10 9 14 12 9 8 8 11 11 13 16 16 16 16 16 13 11 11 10 10 11 10 10 9 10 7 14 19 18 18 19 21 23
5 4 3 3 3 8 9 8 5 8 9 6 4 9 9 11 10 13 14 12 10 8 9 11 11 14 14 15 14 17 16 16 13 12 13 12 10 10 11 12 11 12 12 15 13 17 20 22 24
10 9 3 3 4 6 5 11 13 14 5 4 7 7 10 11 11 10 9 11 10 9 9 9 10 12 12 14 15 14 13 13 14 14 14 14 15 16 17 16 15 15 15 14 14 15 14 17 19
13 10 4 6 4 3 8 7 5 2 5 6 4 9 9 9 8 9 12 13 11 10 7 8 8 8 9 11 12 12 12 12 12 12 12 12 13 14 15 15 15 15 15 15 15 14 14 14 15
6 11 6 4 3 2 5 5 8 5 6 2 6 8 9 8 8 8 12 13 12 10 7 8 7 6 7 8 8 9 8 10 10 9 9 11 11 13 15 15 16 15 16 16 17 17 17 15 15
7 5 6 6 4 5 6 6 8 4 9 9 8 9 10 9 9 8 12 13 11 10 8 7 6 6 6 6 8 8 7 9 9 8 10 12 12 13 14 15 16 16 16 18 18 18 17 18 19
10 5 5 5 5 4 2 5 7 3 3 13 10 11 10 10 9 8 12 14 11 9 9 7 6 5 5 5 7 6 7 8 8 9 10 11 11 13 14 15 15 16 17 20 17 19 20 21 21
16 13 11 5 6 4 7 14 5 1 3 3 8 11 11 13 12 9 16 17 13 11 9 7 6 4 4 4 6 5 6 7 8 9 10 10 11 11 12 13 14 16 18 15 19 21 22 22 22
Wind_Direction
346 334 312 282 291 94 114 82 100 98 79 65 35 61 79 46 22 76 134 118 126 131 150 143 144 144 136 124 111 102 95 100 125 110 85 80 97 85 72 84 89 82 73 70 68 50 71 68 78
339 332 256 268 254 125 99 106 82 77 78 143 56 172 84 71 79 110 120 141 133 135 139 154 148 154 138 125 118 117 106 96 119 123 111 88 107 104 87 86 83 83 69 70 55 59 60 61 55
327 282 287 258 49 39 119 97 105 107 142 159 120 48 33 54 42 88 109 141 133 135 152 153 156 159 148 134 131 121 113 109 120 127 117 101 126 131 114 103 88 80 82 76 63 55 43 36 37
312 209 256 260 82 75 101 100 122 122 117 37 106 92 94 37 59 87 130 140 132 132 144 172 164 163 159 148 141 130 116 112 136 152 148 134 133 138 143 129 112 113 93 96 73 36 360 9 16
288 260 265 75 81 68 73 85 95 87 75 74 109 71 92 74 97 119 132 142 132 137 151 167 167 169 171 168 160 163 143 139 131 163 199 177 136 157 173 165 158 150 138 158 224 329 314 302 50
301 261 273 141 112 98 87 58 41 90 111 94 99 97 79 115 109 123 133 137 132 137 148 171 186 181 185 189 195 201 208 221 210 220 222 219 203 167 185 187 179 179 180 191 212 274 274 256 181
337 328 339 94 122 144 115 247 353 108 105 34 341 89 125 97 115 129 135 131 136 137 155 185 204 201 202 208 216 219 228 244 236 226 234 207 214 202 203 204 223 223 221 220 231 246 239 232 230
306 271 330 134 147 126 119 66 356 20 68 155 357 141 124 124 127 130 129 133 147 155 166 185 206 240 230 253 248 248 246 244 238 233 233 224 223 224 221 221 221 239 246 249 268 271 259 243 245
303 296 221 128 218 117 142 135 36 309 119 50 49 72 106 127 133 133 137 150 165 173 186 189 197 216 229 237 256 258 257 249 238 234 231 227 229 239 254 240 231 243 251 256 261 275 272 262 253
283 275 332 13 54 124 143 192 133 182 126 120 98 96 119 137 150 154 176 176 183 192 205 206 214 220 217 229 242 256 270 259 254 244 241 238 238 225 254 244 244 243 250 259 263 274 274 273 266
156 257 97 54 56 68 136 105 64 247 177 160 151 140 153 154 165 168 178 177 170 187 200 213 219 220 229 230 232 239 243 252 251 251 248 246 246 231 235 233 237 247 248 249 255 258 270 276 268
295 331 326 97 46 30 151 133 213 277 71 76 93 125 155 179 176 188 172 59 102 199 226 232 237 231 229 227 237 241 240 242 240 242 240 236 234 233 234 238 236 245 246 241 246 243 248 256 259
259 240 24 87 126 255 57 233 249 209 144 105 113 137 233 196 155 187 189 249 245 247 261 250 240 234 239 232 236 238 247 247 246 244 240 237 239 239 238 236 238 233 242 237 238 232 241 245 242
5 267 162 120 237 223 227 244 144 243 275 150 173 216 226 215 219 281 282 271 281 319 323 303 284 273 239 245 247 250 239 249 250 247 243 240 240 238 240 239 239 239 235 237 238 240 240 245 243
346 299 191 201 252 240 168 259 243 216 266 257 221 217 232 198 248 251 265 273 279 313 314 302 290 273 259 251 251 252 249 237 240 241 248 243 244 242 239 242 239 241 241 242 242 244 247 247 247
275 270 243 203 209 209 140 251 235 217 209 210 223 225 222 201 223 247 261 267 62 360 320 303 297 288 276 265 254 250 248 247 242 243 240 244 244 242 244 244 245 243 242 242 244 245 246 250 249
231 240 231 259 192 207 175 269 240 199 249 231 249 243 232 236 229 253 266 70 46 346 309 303 302 300 287 274 264 257 253 249 249 255 251 246 242 247 246 246 249 249 249 247 244 244 243 249 253
188 222 265 213 178 224 251 236 279 197 232 253 254 263 258 256 252 257 93 76 43 352 317 321 315 305 293 285 273 263 258 255 250 249 248 233 253 257 250 248 251 252 254 252 249 252 251 254 258
329 296 218 264 151 188 237 255 257 239 196 221 254 259 259 267 266 124 105 91 70 28 359 3 353 350 339 309 304 285 263 260 256 251 251 266 262 259 260 259 257 257 259 262 257 252 257 259 258
261 255 282 262 86 124 289 279 269 247 250 221 221 234 237 242 257 128 112 99 78 58 38 25 20 11 355 348 308 290 304 305 334 323 269 281 261 284 273 269 267 268 270 267 267 259 255 262 263
220 224 255 261 163 265 292 280 253 247 245 228 232 237 233 242 224 127 111 99 93 66 48 35 31 29 19 6 7 331 293 288 292 296 283 286 286 298 293 286 275 275 274 272 271 268 263 258 269
225 213 235 284 305 259 161 286 301 284 230 227 232 237 228 197 116 114 118 114 113 86 75 56 52 50 37 39 46 46 47 47 28 24 21 355 14 346 299 285 290 282 279 272 273 275 271 265 262
226 235 221 227 257 285 264 279 255 239 199 205 224 217 206 161 138 121 115 124 120 104 84 68 62 59 55 51 60 54 50 32 21 1 357 5 9 8 12 21 29 5 298 278 277 274 268 270 260
131 111 152 230 214 245 217 225 228 215 214 218 245 183 153 136 126 118 130 131 111 97 80 76 62 56 57 54 60 62 55 49 49 43 35 27 22 11 358 358 354 350 335 338 341 303 284 283 275
154 148 159 208 212 233 214 207 245 296 317 203 188 167 141 134 131 134 151 137 115 94 82 69 64 58 56 56 50 52 54 51 43 33 28 21 14 7 2 360 359 353 347 339 335 331 337 310 282
190 189 167 184 199 263 174 233 244 32 219 200 181 147 135 137 145 148 143 138 131 115 112 101 88 72 65 65 57 52 48 49 42 32 30 26 15 8 356 3 4 2 356 354 353 353 345 331 330
175 219 235 334 135 89 227 258 306 188 269 297 140 137 148 154 139 140 145 152 146 140 138 120 108 85 68 63 65 53 42 40 33 23 15 7 3 359 352 354 356 359 360 358 1 5 9 0 353
164 150 192 215 209 222 244 241 230 127 204 224 177 184 165 160 151 149 157 152 150 152 147 123 112 99 81 73 67 57 38 40 33 20 17 8 4 360 0 359 2 5 7 5 13 16 359 6 4
195 203 224 174 217 192 256 239 194 150 356 202 202 181 166 161 160 158 162 160 161 163 154 145 129 118 93 78 68 53 34 32 29 19 12 8 3 6 6 5 9 12 15 19 14 16 10 10 7
210 208 202 188 212 248 268 263 306 145 68 26 222 183 174 169 167 162 163 165 174 173 169 157 148 136 93 72 72 55 36 31 26 20 15 10 14 12 15 19 21 22 29 14 14 14 10 7 4